Regional Weather Roundup
Issued by NWS Green Bay, WI

Home | Current Version | Previous Version | Graphics & Text | Print | Product List | Glossary Off
Versions: 1 2 3 4 5 6 7 8 9 10 11 12 13 14 15 16 17 18 19 20 21 22 23 24 25 26 27 28 29 30 31 32 33 34 35 36 37 38 39 40 41 42 43 44 45 46 47 48 49 50

000
ASUS43 KGRB 301100
RWRGRB

NORTH-CENTRAL AND NORTHEAST WISCONSIN REGIONAL WEATHER ROUNDUP
NATIONAL WEATHER SERVICE GREEN BAY WI
600 AM CDT SUN APR 30 2017

WIZ005-009-010>012-018-019-301200-
NORTH CENTRAL WISCONSIN

CITY           SKY/WX    TMP DP  RH WIND       PRES   REMARKS
IRONWOOD       CLOUDY    36  20  52 E12       30.19F
MANITOWISH WTR NOT AVBL
ARBOR VITAE    NOT AVBL
EAGLE RIVER    NOT AVBL
LAND O LAKES   NOT AVBL
RHINELANDER    CLOUDY    37  23  56 E10       30.15R
PHILLIPS       NOT AVBL
ANTIGO         NOT AVBL
TOMAHAWK       NOT AVBL
MERRILL        NOT AVBL
$$

WIZ013-073-301200-
NORTHEAST WISCONSIN

CITY           SKY/WX    TMP DP  RH WIND       PRES   REMARKS
IRON MOUNTAIN  CLOUDY    39  25  57 E9        30.19R
MARINETTE      CLOUDY    41  34  76 E13       30.18R
$$

WIZ017-030-035>037-045-301200-
CENTRAL WISCONSIN

CITY           SKY/WX    TMP DP  RH WIND       PRES   REMARKS
MEDFORD        NOT AVBL
WAUSAU         CLOUDY    39  24  55 NE9       30.11S
MOSINEE        CLOUDY    37  25  60 NE12      30.12F
MARSHFIELD     CLOUDY    39  26  59 E16G23    30.06F
WISC RAPIDS    CLOUDY    40  29  64 E10G21    30.08F
STEVENS POINT  NOT AVBL
WAUPACA        NOT AVBL
SHAWANO        NOT AVBL
CLINTONVILLE   NOT AVBL
WAUTOMA        CLOUDY    40  34  79 NE14      30.07F
$$

WIZ038-039-048-051-301200-
FOX VALLEY

CITY           SKY/WX    TMP DP  RH WIND       PRES   REMARKS
NWS GREEN BAY  CLOUDY    40  37  89 NE18G29   30.10F
APPLETON       CLOUDY    39  34  81 NE13G20   30.07F
OSHKOSH        CLOUDY    40  36  86 NE17G25   30.07S
FOND DU LAC    CLOUDY    40  36  86 NE10G21   30.07R FOG
$$

WIZ022-050-052-301200-
EAST CENTRAL WISCONSIN

CITY           SKY/WX    TMP DP  RH WIND       PRES   REMARKS
EPHRAIM        NOT AVBL
WASHINGTON ISL NOT AVBL
STURGEON BAY   LGT RAIN  39  36  89 NE10G18   30.17R
MANITOWOC      NOT AVBL
SHEBOYGAN      LGT RAIN  39  37  92 NE21G28   30.07R FOG
$$

LMZ563-521-522-541>543-301200-
LAKESHORE

STATION/POSITION TIME  TEMP    WIND        PRES    VSBY  WAVE
                       AIR SEA DIR/SP/G                  HT/PER
                 (UTC) (F)     (DEG/KT/KT) (MB)    (MI)  (FT/S)
SHEBOYGAN LKSHOR 1000   39      30/ 24/ 27 1018.5F
KEWAUNEE LKSHORE 1030   40      50/ 12/ 19 1019.9R
NORTHPORT PIER   1040   40      80/ 16/ 19 1022.4R
N MID LAKE BUOY  0950   38 37   70/ 14/ 16 1023.4F         2/ 4
CHAMBERS ISLAND  1040   41      60/ 11/ 15 1021.7R
MENOMINEE LKSHOR 1030   42      50/ 13/ 17 1021.0R
$$



USA.gov is the U.S. government's official web portal to all federal, state and local government web resources and services.